TIME,DELAY(SENSOR),PRES,OXYGEN,RAWTEMP,T(OPTODE),TCPHASE,FLUOR,BETA(BETA700),BETA(BETA412),BETA(BETA440),CDOM,C(CSC),ED(ED412.40),ED(ED444.00),ED(ED489.70),ED(ED554.30),LU(LU411.80),LU(LU443.40),LU(LU489.60),LU(LU554.10),COMP,TILTX,TILTY,CHECK
1368503503,5805,825.8499755859375000,41.7961082458496100,656.1370849609375000,4.7550621032714840,54.6834602355957000,53,99,86,79,80,14948,2147754029,2147425316,2148006637,2147874825,2147644068,2147054665,2148253851,2147199286,2843,4,14,18300
1368507099,5806,869.4199829101562000,45.5300292968750000,661.3734741210938000,4.5827450752258300,54.1931686401367200,51,106,86,78,80,14951,2147755026,2147422061,2148010532,2147876096,2147640923,2147054464,2148259510,2147197202,115,4,13,61441
1368510699,5808,861.4400024414062000,46.4176406860351560,661.5405883789062000,4.5772399902343750,54.0695381164550800,52,104,87,79,80,14949,2147752594,2147426587,2148009718,2147875968,2147642596,2147058523,2148255222,2147197586,2931,4,13,43973
1368514299,5811,884.7199707031250000,47.5138206481933600,664.0958862304688000,4.4930319786071780,53.9427909851074200,53,106,87,79,80,14949,2147755300,2147424073,2148010816,2147873874,2147641161,2147058230,2148254189,2147199890,23,4,13,47938
1368517899,5810,890.1099853515625000,47.4703216552734400,664.9848022460938000,4.4637260437011720,53.9645996093750000,53,97,88,79,80,14948,2147757476,2147425188,2148008310,2147874285,2147642532,2147055515,2148256073,2147201261,428,4,13,35470
1368521499,5805,892.7899780273438000,46.6568183898925800,665.4448242187500000,4.4485569000244140,54.0847702026367200,53,99,85,78,79,14939,2147756900,2147421220,2148008978,2147874980,2147643392,2147053028,2148251081,2147196772,3591,4,13,40451
1368525099,5812,921.1099853515625000,46.5297889709472660,668.4464721679688000,4.3495011329650880,54.1365394592285160,52,100,87,79,81,14947,2147756105,2147421430,2148010377,2147874998,2147642496,2147059977,2148259629,2147197796,3555,4,13,35794
1368528699,5809,926.5800170898438000,46.4282188415527340,668.0584716796875000,4.3623118400573730,54.1430587768554700,52,100,87,78,80,14949,2147759606,2147424228,2148011181,2147877101,2147639881,2147058048,2148254235,2147200640,2978,4,13,27443
1368532299,5808,930.7899780273438000,46.5739288330078100,667.3814697265625000,4.3846569061279300,54.1193809509277340,52,100,88,78,80,14950,2147756681,2147420772,2148005961,2147875565,2147644288,2147053366,2148254061,2147199021,196,4,13,18656
1368535899,5807,958.1099853515625000,46.5306091308593750,668.9016723632812000,4.3344731330871580,54.1414604187011700,53,99,84,79,80,14946,2147756178,2147422774,2148007076,2147874660,2147641499,2147053787,2148259437,2147196507,3428,4,13,52882
1368539499,5809,963.2000122070312000,46.9071807861328100,669.0493774414062000,4.3295960426330570,54.0937194824218750,54,100,86,77,79,14944,2147758500,2147421412,2148008749,2147875657,2147639680,2147056640,2148257645,2147193929,3455,4,13,45791
1368543099,5809,962.2700195312500000,46.2018890380859400,668.7819213867188000,4.3384270668029785,54.1930198669433600,52,100,84,78,80,14943,2147752731,2147422290,2148007387,2147872237,2147641965,2147054729,2148256301,2147196041,1136,4,13,64465
1368546699,5808,981.6900024414062000,47.6967811584472660,671.8491821289062000,4.2370929718017580,54.0118904113769500,52,99,85,79,80,14945,2147759040,2147421787,2148008329,2147876800,2147641234,2147054966,2148261924,2147200073,265,4,13,29599
1368550299,5809,982.8800048828125000,47.9322891235351560,672.1425781250000000,4.2273921966552730,53.9830703735351560,53,100,87,79,80,14945,2147755986,2147423323,2148011602,2147873764,2147644178,2147059035,2148263963,2147197412,50,4,13,37490
1368553899,5805,987.6900024414062000,48.2994804382324200,672.1597290039062000,4.2268300056457520,53.9320716857910160,52,98,87,80,80,14939,2147754861,2147423058,2148010944,2147876013,2147643099,2147057188,2148262006,2147195986,3357,4,13,44955
1368557499,5808,976.5599975585938000,47.9388885498046900,672.5322875976562000,4.2145099639892580,53.9895401000976560,52,102,89,79,79,14944,2147757293,2147422765,2148007396,2147877467,2147640758,2147057755,2148257462,2147192539,417,4,13,41792
1368561099,5808,974.2899780273438000,49.3704185485839840,674.6019287109375000,4.1460590362548830,53.8179283142089840,52,103,84,79,79,14943,2147758656,2147422592,2148010322,2147877778,2147641499,2147061440,2148258057,2147198994,3505,4,13,33710
1368564699,5811,979.1199951171875000,49.5881195068359400,674.5988159179688000,4.1461639404296875,53.7840614318847660,52,99,84,80,79,14944,2147758729,2147423030,2148010898,2147875209,2147647314,2147052754,2148261760,2147199003,238,4,13,45188
1368568299,5809,986.8599853515625000,48.6366081237793000,672.7487792968750000,4.2073497772216800,53.8935585021972660,53,127,85,78,80,14945,2147756918,2147423945,2148009792,2147875218,2147644096,2147060233,2148260096,2147199643,3581,4,14,52435
1368571899,5807,986.4600219726562000,48.8145217895507800,673.2036132812500000,4.1923117637634280,53.8720207214355500,52,98,86,79,81,14942,2147756278,2147423524,2148009024,2147872512,2147639652,2147056073,2148255350,2147197211,3483,4,13,57882
1368575499,5808,990.3699951171875000,48.5407218933105500,672.4182739257812000,4.2182769775390625,53.9018783569335940,53,98,83,79,81,14942,2147756452,2147423552,2148011666,2147874148,2147642267,2147055936,2148258605,2147195117,121,4,13,39894
1368579099,5809,988.0499877929688000,47.6228599548339840,671.9210815429688000,4.2347159385681150,54.0227203369140600,52,100,87,77,80,14940,2147757074,2147421558,2148011044,2147875574,2147639771,2147057691,2148262902,2147196242,70,4,13,30705
1368582699,5811,989.5499877929688000,47.5148887634277340,671.8521118164062000,4.2369961738586430,54.0407791137695300,52,102,88,78,79,14942,2147755748,2147425014,2148010166,2147875538,2147639533,2147054912,2148262299,2147193389,161,4,13,60580
1368586299,5808,988.9799804687500000,47.3117103576660160,671.8505249023438000,4.2370471954345700,54.0669288635253900,52,108,86,78,80,14937,2147758244,2147423917,2148011437,2147873088,2147641956,2147055030,2148255323,2147194221,98,4,13,51494
1368589899,5809,992.9699707031250000,47.8400917053222660,672.1528930664062000,4.2270531654357910,53.9959907531738300,51,98,85,80,80,14940,2147757933,2147423332,2148011245,2147872576,2147640585,2147050322,2148262601,2147197970,3315,4,13,53932
1368593499,5808,988.0200195312500000,47.5702781677246100,672.4711914062500000,4.2165298461914060,54.0386009216308600,52,98,88,79,79,14940,2147757577,2147426093,2148007643,2147875126,2147643090,2147053211,2148255030,2147198281,245,4,13,26288
1368597099,5809,981.6500244140625000,48.6778907775878900,673.8496704101562000,4.1709418296813965,53.9023094177246100,52,99,86,79,79,14942,2147756013,2147421558,2148010221,2147876736,2147642322,2147050422,2148260553,2147194715,537,4,13,43621
1368600699,5808,981.7800292968750000,49.0275382995605500,673.8372802734375000,4.1713538169860840,53.8532409667968750,52,101,85,79,80,14941,2147757458,2147426971,2148010240,2147875273,2147642368,2147053961,2148257545,2147200649,3524,4,13,43738
1368604299,5809,979.9899902343750000,49.1744117736816400,674.4000244140625000,4.1527390480041500,53.8420600891113300,53,98,85,79,81,14940,2147757129,2147424210,2148010688,2147875931,2147641837,2147056813,2148255314,2147196882,279,4,13,1355
1368607899,5811,988.5200195312500000,49.6327018737793000,674.5963134765625000,4.1462440490722660,53.7812995910644500,52,99,86,79,80,14940,2147753984,2147426084,2148011894,2147875273,2147641572,2147061696,2148262427,2147192603,59,4,13,36305
1368611499,5812,987.7100219726562000,49.2517318725585940,674.1934204101562000,4.1595749855041500,53.8252410888671900,52,98,85,78,80,14937,2147754596,2147420982,2148009856,2147877129,2147639433,2147056539,2148256173,2147195200,447,4,13,48634
1368615099,5808,988.1699829101562000,49.4445686340332000,673.7514038085938000,4.1741938591003420,53.7935218811035160,52,99,84,79,79,14938,2147756882,2147423506,2148010688,2147875968,2147641481,2147058578,2148258203,2147195072,124,4,13,36908
1368618699,5811,999.6300048828125000,48.8824310302734400,673.2821044921875000,4.1897158622741700,53.8655204772949200,53,99,82,78,79,14939,2147759232,2147424356,2148007835,2147876288,2147643721,2147056320,2148258157,2147196580,73,4,13,57935
1368622299,5812,990.9199829101562000,47.7979202270507800,673.1707153320312000,4.1934008598327640,54.0141792297363300,52,98,84,78,81,14938,2147757028,2147422966,2148010203,2147873746,2147640996,2147059062,2148258166,2147193033,65,4,13,15056
1368625899,5809,998.2800292968750000,47.8734817504882800,673.2648925781250000,4.1902852058410645,54.0039710998535160,52,102,88,77,80,14937,2147755702,2147424237,2148008036,2147872356,2147642368,2147060425,2148255625,2147194221,282,4,13,30463
1368629499,5807,998.9299926757812000,47.7733383178710940,672.4871215820312000,4.2160048484802250,54.0152091979980500,52,98,89,80,80,14935,2147756187,2147424832,2148010797,2147873856,2147642057,2147060772,2148256786,2147195693,3448,4,13,11950
1368633099,5810,997.2999877929688000,47.9169998168945300,672.6655273437500000,4.2101078033447270,53.9968299865722660,52,98,87,78,80,14935,2147756836,2147424118,2148010907,2147872438,2147640182,2147053641,2148256530,2147192777,3304,4,13,32445
1368636699,5808,992.3300170898438000,47.4481697082519500,673.0172119140625000,4.1984767913818360,54.0670013427734400,52,99,84,78,80,14934,2147755318,2147422180,2148010002,2147873206,2147640594,2147056182,2148264100,2147197750,250,4,13,58722
1368640299,5809,990.3499755859375000,47.9080009460449200,673.7888183593750000,4.1729578971862790,54.0106811523437500,53,97,89,79,81,14932,2147755273,2147424036,2148011904,2147873536,2147641526,2147060178,2148263195,2147194678,119,4,13,8319
1368643899,5809,989.3699951171875000,47.6201400756835940,673.6036987304688000,4.1790809631347660,54.0489006042480500,53,99,86,79,79,14934,2147757302,2147424393,2148008493,2147875181,2147640941,2147063744,2148259593,2147198601,478,4,13,63222
1368647499,5807,984.6099853515625000,48.0964889526367200,673.8505859375000000,4.1709117889404300,53.9842681884765600,52,99,88,78,80,14932,2147756763,2147422674,2148010834,2147875117,2147641618,2147064859,2148259309,2147195638,231,4,13,28554
1368648655,5809,990.9699707031250000,48.1910781860351560,674.3872070312500000,4.1531620025634770,53.9740905761718750,52,99,85,79,79,14929,2147758043,2147421814,2148006198,2147873664,2147644827,2147062390,2148253028,2147196416,3558,4,13,48513
